TimeEST,TemperatureF,Dew PointF,Humidity,Sea Level PressureIn,VisibilityMPH,Wind Direction,Wind SpeedMPH,Gust SpeedMPH,PrecipitationIn,Events,Conditions,WindDirDegrees,DateUTC
12:53 AM,36.0,30.0,79,30.01,8.0,NW,4.6,-,N/A,,Clear,310,2013-12-04 05:53:00
1:53 AM,34.0,28.9,82,30.02,7.0,Calm,Calm,-,N/A,,Clear,0,2013-12-04 06:53:00
2:53 AM,30.9,28.0,89,30.03,7.0,Calm,Calm,-,N/A,,Clear,0,2013-12-04 07:53:00
3:53 AM,30.0,27.0,88,30.04,6.0,Calm,Calm,-,N/A,,Clear,0,2013-12-04 08:53:00
4:53 AM,28.9,27.0,92,30.04,6.0,Calm,Calm,-,N/A,,Clear,0,2013-12-04 09:53:00
5:53 AM,32.0,28.0,85,30.07,8.0,West,4.6,-,N/A,,Clear,260,2013-12-04 10:53:00
6:53 AM,32.0,28.0,85,30.09,7.0,Calm,Calm,-,N/A,,Clear,0,2013-12-04 11:53:00
7:53 AM,33.1,28.9,85,30.11,6.0,Calm,Calm,-,N/A,,Clear,0,2013-12-04 12:53:00
8:53 AM,36.0,28.9,76,30.13,7.0,Calm,Calm,-,N/A,,Clear,0,2013-12-04 13:53:00
9:53 AM,39.0,28.9,67,30.13,9.0,North,4.6,-,N/A,,Clear,350,2013-12-04 14:53:00
10:53 AM,41.0,30.0,65,30.12,10.0,Calm,Calm,-,N/A,,Clear,0,2013-12-04 15:53:00
11:53 AM,45.0,30.0,56,30.11,10.0,Calm,Calm,-,N/A,,Unknown,0,2013-12-04 16:53:00
12:53 PM,46.0,30.9,56,30.11,10.0,SW,8.1,-,N/A,,Clear,220,2013-12-04 17:53:00
1:53 PM,46.9,30.9,54,30.11,10.0,SW,4.6,-,N/A,,Clear,230,2013-12-04 18:53:00
2:53 PM,46.9,32.0,56,30.11,10.0,SW,3.5,-,N/A,,Clear,230,2013-12-04 19:53:00
3:53 PM,46.0,35.1,66,30.14,10.0,SW,3.5,-,N/A,,Clear,230,2013-12-04 20:53:00
4:53 PM,41.0,34.0,76,30.15,10.0,Calm,Calm,-,N/A,,Clear,0,2013-12-04 21:53:00
5:53 PM,37.0,33.1,86,30.15,9.0,Calm,Calm,-,N/A,,Clear,0,2013-12-04 22:53:00
6:53 PM,35.1,32.0,89,30.17,9.0,Calm,Calm,-,N/A,,Clear,0,2013-12-04 23:53:00
7:53 PM,34.0,30.9,89,30.17,8.0,Calm,Calm,-,N/A,,Clear,0,2013-12-05 00:53:00
8:53 PM,33.1,30.0,89,30.18,7.0,North,3.5,-,N/A,,Clear,10,2013-12-05 01:53:00
9:53 PM,35.1,33.1,92,30.19,7.0,Calm,Calm,-,N/A,,Overcast,0,2013-12-05 02:53:00
10:53 PM,35.1,33.1,92,30.20,7.0,North,3.5,-,N/A,,Overcast,10,2013-12-05 03:53:00
11:18 PM,35.1,32.0,89,30.19,7.0,North,3.5,-,N/A,,Scattered Clouds,10,2013-12-05 04:18:00
11:53 PM,34.0,32.0,92,30.19,7.0,Calm,Calm,-,N/A,,Clear,0,2013-12-05 04:53:00